When you browse on this site, cookies collect data to enhance your experience and personalize the content and advertising you see.
Visit our Privacy Policy to learn more. By continuing to use the site, you agree to this use of cookies and data.
  • In Austria
  • List of Countries
  • For 7 days
  • Water Temperature
  • Satellite Maps
  • Weather Map
  • News
  • Weather Widgets
  • user-avatar
    Login

    Hourly Weather Tskhinvali

    Today, 21 November, Wednesday

    Time Temperature Precipitation Wind Pressure Humidity
    00:00 +7°C° 0.2 mm 2 mps 682 mmHg 86%
    01:00 +6°C° 0.1 mm 2 mps 682 mmHg 88%
    02:00 +6°C° 0.1 mm 2 mps 682 mmHg 89%
    03:00 +5°C° 0 mm 4 mps 682 mmHg 92%
    04:00 +5°C° 0.1 mm 4 mps 681 mmHg 92%
    05:00 +5°C° 0.1 mm 3 mps 681 mmHg 91%
    06:00 +6°C° 0.1 mm 2 mps 681 mmHg 91%
    07:00 +6°C° 0.1 mm 2 mps 681 mmHg 89%
    08:00 +7°C° 0.1 mm 3 mps 681 mmHg 87%
    09:00 +7°C° 0.1 mm 3 mps 681 mmHg 85%
    10:00 +7°C° 0.1 mm 3 mps 681 mmHg 84%
    11:00 +8°C° 0.1 mm 3 mps 681 mmHg 83%
    12:00 +8°C° 0.1 mm 3 mps 680 mmHg 82%
    13:00 +8°C° 0.1 mm 3 mps 680 mmHg 83%
    14:00 +8°C° 0.1 mm 3 mps 680 mmHg 83%
    15:00 +8°C° 0.1 mm 3 mps 680 mmHg 84%
    16:00 +7°C° 0 mm 2 mps 680 mmHg 86%
    17:00 +7°C° 0 mm 2 mps 680 mmHg 88%
    18:00 +7°C° 0 mm 1 mps 680 mmHg 90%
    19:00 +7°C° 0.1 mm 1 mps 680 mmHg 90%
    20:00 +7°C° 0.1 mm 1 mps 680 mmHg 90%
    21:00 +7°C° 0.1 mm 1 mps 680 mmHg 90%
    22:00 +7°C° 0.4 mm 1 mps 680 mmHg 90%
    23:00 +7°C° 0.4 mm 1 mps 680 mmHg 90%

    Tomorrow, 22 November, Thursday

    Time Temperature Precipitation Wind Pressure Humidity
    00:00 +7°C° 0.4 mm 1 mps 679 mmHg 90%
    01:00 +7°C° 0.5 mm 1 mps 679 mmHg 90%
    02:00 +7°C° 0.5 mm 1 mps 679 mmHg 91%
    03:00 +6°C° 0.5 mm 2 mps 679 mmHg 92%
    04:00 +6°C° 0.5 mm 2 mps 679 mmHg 92%
    05:00 +5°C° 0.5 mm 2 mps 679 mmHg 92%
    06:00 +5°C° 0.5 mm 2 mps 679 mmHg 92%
    07:00 +6°C° 0.5 mm 2 mps 679 mmHg 92%
    08:00 +6°C° 0.5 mm 2 mps 679 mmHg 91%
    09:00 +6°C° 0.5 mm 2 mps 679 mmHg 90%
    10:00 +6°C° 0.4 mm 2 mps 679 mmHg 89%
    11:00 +6°C° 0.4 mm 2 mps 678 mmHg 88%
    12:00 +7°C° 0.4 mm 2 mps 678 mmHg 87%
    13:00 +7°C° 0.3 mm 2 mps 678 mmHg 87%
    14:00 +7°C° 0.3 mm 2 mps 678 mmHg 86%
    15:00 +7°C° 0.3 mm 2 mps 678 mmHg 85%
    16:00 +6°C° 0.2 mm 2 mps 678 mmHg 86%
    17:00 +7°C° 0.2 mm 1 mps 678 mmHg 88%
    18:00 +7°C° 0.2 mm 1 mps 679 mmHg 89%
    19:00 +7°C° 0.3 mm 1 mps 679 mmHg 89%
    20:00 +7°C° 0.3 mm 1 mps 679 mmHg 89%
    21:00 +7°C° 0.3 mm 1 mps 679 mmHg 89%
    22:00 +7°C° 0.4 mm 1 mps 679 mmHg 89%
    23:00 +7°C° 0.4 mm 1 mps 680 mmHg 89%

    Day after tomorrow, 23 November, Friday

    Time Temperature Precipitation Wind Pressure Humidity
    00:00 +6°C° 0.4 mm 1 mps 680 mmHg 90%
    01:00 +6°C° 0.3 mm 1 mps 680 mmHg 90%
    02:00 +6°C° 0.3 mm 1 mps 680 mmHg 90%
    03:00 +6°C° 0.3 mm 1 mps 680 mmHg 90%
    04:00 +6°C° 0.3 mm 1 mps 680 mmHg 90%
    05:00 +6°C° 0.3 mm 1 mps 680 mmHg 90%
    06:00 +6°C° 0.3 mm 1 mps 680 mmHg 91%
    07:00 +7°C° 0.2 mm 1 mps 681 mmHg 90%
    08:00 +6°C° 0.2 mm 2 mps 681 mmHg 89%
    09:00 +6°C° 0.2 mm 2 mps 681 mmHg 88%
    10:00 +6°C° 0.2 mm 2 mps 681 mmHg 87%
    11:00 +7°C° 0.2 mm 3 mps 681 mmHg 86%
    12:00 +7°C° 0.2 mm 3 mps 681 mmHg 86%
    13:00 +7°C° 0.1 mm 3 mps 682 mmHg 86%
    14:00 +7°C° 0.1 mm 3 mps 682 mmHg 86%
    15:00 +5°C° 0.1 mm 4 mps 682 mmHg 86%
    16:00 +5°C° 0.1 mm 3 mps 683 mmHg 87%
    17:00 +4°C° 0.1 mm 3 mps 683 mmHg 88%
    18:00 +4°C° 0.1 mm 3 mps 684 mmHg 89%
    19:00 +3°C° 0 mm 3 mps 684 mmHg 89%
    20:00 +3°C° 0 mm 3 mps 685 mmHg 89%
    21:00 +3°C° 0 mm 2 mps 686 mmHg 89%
    22:00 +3°C° 0 mm 2 mps 686 mmHg 89%
    23:00 +3°C° 0 mm 2 mps 686 mmHg 89%

    24 November, Saturday

    Time Temperature Precipitation Wind Pressure Humidity
    00:00 +2°C° 0 mm 2 mps 687 mmHg 89%
    01:00 +2°C° 0 mm 2 mps 687 mmHg 87%
    02:00 +3°C° 0 mm 1 mps 687 mmHg 85%
    03:00 +3°C° 0 mm 1 mps 687 mmHg 84%
    04:00 +2°C° 0 mm 1 mps 687 mmHg 81%
    05:00 +2°C° 0 mm 1 mps 687 mmHg 79%
    06:00 +2°C° 0 mm 1 mps 687 mmHg 76%
    07:00 +3°C° 0 mm 1 mps 688 mmHg 72%
    08:00 +4°C° 0 mm 1 mps 688 mmHg 69%
    09:00 +5°C° 0 mm 1 mps 689 mmHg 66%
    10:00 +5°C° 0 mm 2 mps 689 mmHg 66%
    11:00 +5°C° 0 mm 3 mps 689 mmHg 66%
    12:00 +6°C° 0 mm 4 mps 689 mmHg 66%
    13:00 +6°C° 0 mm 4 mps 688 mmHg 68%
    14:00 +5°C° 0 mm 4 mps 688 mmHg 69%
    15:00 +5°C° 0 mm 4 mps 688 mmHg 71%
    16:00 +4°C° 0 mm 4 mps 688 mmHg 72%
    17:00 +3°C° 0 mm 3 mps 688 mmHg 73%
    18:00 +2°C° 0 mm 3 mps 688 mmHg 75%
    19:00 +1°C° 0 mm 3 mps 688 mmHg 75%
    20:00 +1°C° 0 mm 3 mps 688 mmHg 75%
    21:00 +1°C° 0 mm 3 mps 688 mmHg 75%
    22:00 +1°C° 0 mm 3 mps 688 mmHg 76%
    23:00 +1°C° 0 mm 3 mps 688 mmHg 76%

    25 November, Sunday

    Time Temperature Precipitation Wind Pressure Humidity
    00:00 +1°C° 0 mm 3 mps 687 mmHg 76%
    01:00 0°C° 0 mm 3 mps 687 mmHg 76%
    02:00 +1°C° 0 mm 2 mps 686 mmHg 75%
    03:00 +1°C° 0 mm 2 mps 686 mmHg 74%
    04:00 +1°C° 0 mm 2 mps 685 mmHg 74%
    05:00 +1°C° 0 mm 2 mps 685 mmHg 74%
    06:00 +1°C° 0 mm 2 mps 685 mmHg 74%
    07:00 +2°C° 0 mm 2 mps 684 mmHg 72%
    08:00 +3°C° 0 mm 2 mps 684 mmHg 70%
    09:00 +4°C° 0 mm 2 mps 684 mmHg 68%
    10:00 +5°C° 0 mm 2 mps 684 mmHg 66%
    11:00 +6°C° 0 mm 2 mps 683 mmHg 65%
    12:00 +8°C° 0 mm 2 mps 682 mmHg 63%
    13:00 +8°C° 0 mm 2 mps 682 mmHg 63%
    14:00 +9°C° 0 mm 1 mps 681 mmHg 63%
    15:00 +9°C° 0 mm 1 mps 681 mmHg 63%
    16:00 +8°C° 0 mm 1 mps 681 mmHg 65%
    17:00 +7°C° 0 mm 1 mps 681 mmHg 66%
    18:00 +5°C° 0 mm 1 mps 681 mmHg 67%
    19:00 +5°C° 0 mm 1 mps 681 mmHg 67%
    20:00 +5°C° 0 mm 1 mps 681 mmHg 66%
    21:00 +5°C° 0 mm 1 mps 681 mmHg 65%
    22:00 +4°C° 0 mm 1 mps 681 mmHg 64%
    23:00 +4°C° 0 mm 1 mps 680 mmHg 64%

    26 November, Monday

    Time Temperature Precipitation Wind Pressure Humidity
    00:00 +4°C° 0 mm 1 mps 680 mmHg 63%
    01:00 +4°C° 0 mm 1 mps 680 mmHg 63%
    02:00 +4°C° 0 mm 1 mps 680 mmHg 64%
    03:00 +4°C° 0 mm 1 mps 680 mmHg 64%
    04:00 +4°C° 0 mm 1 mps 680 mmHg 65%
    05:00 +4°C° 0 mm 1 mps 680 mmHg 66%
    06:00 +4°C° 0 mm 1 mps 680 mmHg 67%
    07:00 +5°C° 0 mm 1 mps 680 mmHg 66%
    08:00 +5°C° 0 mm 1 mps 680 mmHg 65%
    09:00 +6°C° 0 mm 1 mps 681 mmHg 64%
    10:00 +7°C° 0 mm 1 mps 680 mmHg 64%
    11:00 +8°C° 0 mm 2 mps 680 mmHg 64%
    12:00 +9°C° 0 mm 2 mps 680 mmHg 63%
    13:00 +9°C° 0 mm 2 mps 680 mmHg 65%
    14:00 +8°C° 0 mm 2 mps 680 mmHg 66%
    15:00 +8°C° 0 mm 2 mps 680 mmHg 67%
    16:00 +8°C° 0 mm 1 mps 680 mmHg 71%
    17:00 +7°C° 0 mm 1 mps 680 mmHg 74%
    18:00 +5°C° 0 mm 1 mps 680 mmHg 78%
    19:00 +5°C° 0 mm 1 mps 680 mmHg 76%
    20:00 +5°C° 0 mm 1 mps 680 mmHg 75%
    21:00 +4°C° 0 mm 1 mps 680 mmHg 74%
    22:00 +4°C° 0 mm 1 mps 680 mmHg 73%
    23:00 +4°C° 0 mm 1 mps 680 mmHg 73%
    Show more